Tracking 20748 objects as of 4-Jun-2020
HD Live streaming from Space Station
objects crossing your sky now
Track the most recent launched group of Starlink satellites

AVUM DEB(ADAPTOR)

Track AVUM DEB(ADAPTOR) now!
10-day predictions


NORAD ID: 42902
Int'l Code: 2017-044C
Perigee: 338.1 km
Apogee: 343.4 km
Inclination: 97.1 °
Period: 91.2 minutes
Semi major axis: 6711 km
RCS: Unknown
Launch date: August 2, 2017
Source: European Space Agency (ESA)
Launch site: FRENCH GUIANA (FRGUI)

Note: This is SATELLITE DEBRIS
aabbcc
Your satellite tracking list
Your tracking list is empty




NASA's NSSDC Master Catalog

Two Line Element Set (TLE):
1 42902U 17044C   20155.76550698 +.00070828 +00000-0 +40080-3 0  9992
2 42902 097.1237 245.5550 0003939 135.0580 225.1007 15.78888759160998
Source of the keplerian elements: AFSPC